• In Latvia
  • List of Countries
  • For 7 days
  • Water Temperature
  • Satellite Maps
  • Weather Map
  • Weather Widgets
  • user-avatar
    Login

    Hourly Weather Valdemarpils

    Today, 24 October, Wednesday

    Time Temperature Precipitation Wind Pressure Humidity
    00:00 +5°C° 0.2 mm 9 mps 731 mmHg 79%
    01:00 +5°C° 0.2 mm 9 mps 731 mmHg 79%
    02:00 +5°C° 0.2 mm 9 mps 731 mmHg 78%
    03:00 +5°C° 0.6 mm 9 mps 731 mmHg 80%
    04:00 +5°C° 0.6 mm 9 mps 732 mmHg 81%
    05:00 +5°C° 0.6 mm 10 mps 732 mmHg 82%
    06:00 +5°C° 0.5 mm 10 mps 732 mmHg 82%
    07:00 +5°C° 0.5 mm 10 mps 733 mmHg 81%
    08:00 +5°C° 0.5 mm 10 mps 733 mmHg 80%
    09:00 +5°C° 0.3 mm 10 mps 734 mmHg 78%
    10:00 +5°C° 0.3 mm 9 mps 736 mmHg 76%
    11:00 +5°C° 0.3 mm 9 mps 737 mmHg 73%
    12:00 +6°C° 0.2 mm 10 mps 738 mmHg 73%
    13:00 +6°C° 0.2 mm 10 mps 739 mmHg 72%
    14:00 +6°C° 0.2 mm 10 mps 740 mmHg 72%
    15:00 +5°C° 0.1 mm 9 mps 741 mmHg 73%
    16:00 +5°C° 0.1 mm 9 mps 742 mmHg 73%
    17:00 +5°C° 0.1 mm 9 mps 743 mmHg 74%
    18:00 +4°C° 0.1 mm 8 mps 744 mmHg 75%
    19:00 +4°C° 0.1 mm 7 mps 745 mmHg 77%
    20:00 +3°C° 0.1 mm 7 mps 745 mmHg 78%
    21:00 +3°C° 0 mm 6 mps 745 mmHg 79%
    22:00 +3°C° 0 mm 6 mps 746 mmHg 80%
    23:00 +3°C° 0 mm 5 mps 746 mmHg 80%

    Tomorrow, 25 October, Thursday

    Time Temperature Precipitation Wind Pressure Humidity
    00:00 +3°C° 0.1 mm 5 mps 746 mmHg 82%
    01:00 +3°C° 0.1 mm 4 mps 745 mmHg 83%
    02:00 +3°C° 0.1 mm 4 mps 745 mmHg 84%
    03:00 +3°C° 0.2 mm 4 mps 745 mmHg 84%
    04:00 +3°C° 0.2 mm 4 mps 744 mmHg 83%
    05:00 +3°C° 0.2 mm 4 mps 744 mmHg 83%
    06:00 +3°C° 0.1 mm 4 mps 743 mmHg 83%
    07:00 +3°C° 0.1 mm 3 mps 743 mmHg 83%
    08:00 +3°C° 0.1 mm 3 mps 742 mmHg 82%
    09:00 +4°C° 0.1 mm 3 mps 742 mmHg 78%
    10:00 +6°C° 0.1 mm 2 mps 741 mmHg 74%
    11:00 +7°C° 0.1 mm 2 mps 741 mmHg 70%
    12:00 +7°C° 0.1 mm 2 mps 741 mmHg 68%
    13:00 +7°C° 0.1 mm 2 mps 741 mmHg 66%
    14:00 +7°C° 0.1 mm 2 mps 740 mmHg 64%
    15:00 +7°C° 0.2 mm 2 mps 741 mmHg 69%
    16:00 +6°C° 0.2 mm 2 mps 741 mmHg 74%
    17:00 +5°C° 0.2 mm 2 mps 741 mmHg 79%
    18:00 +5°C° 0.1 mm 2 mps 741 mmHg 80%
    19:00 +4°C° 0.1 mm 3 mps 741 mmHg 81%
    20:00 +4°C° 0.1 mm 3 mps 742 mmHg 82%
    21:00 +3°C° 0.1 mm 3 mps 742 mmHg 83%
    22:00 +3°C° 0.1 mm 4 mps 742 mmHg 85%
    23:00 +3°C° 0.1 mm 4 mps 742 mmHg 86%

    Day after tomorrow, 26 October, Friday

    Time Temperature Precipitation Wind Pressure Humidity
    00:00 +3°C° 0.1 mm 4 mps 742 mmHg 86%
    01:00 +3°C° 0.1 mm 4 mps 742 mmHg 85%
    02:00 +3°C° 0.1 mm 4 mps 743 mmHg 85%
    03:00 +1°C° 0.1 mm 4 mps 743 mmHg 85%
    04:00 +1°C° 0.1 mm 5 mps 743 mmHg 85%
    05:00 +1°C° 0.1 mm 5 mps 743 mmHg 85%
    06:00 +1°C° 0.1 mm 5 mps 743 mmHg 85%
    07:00 +1°C° 0.1 mm 5 mps 743 mmHg 85%
    08:00 +1°C° 0.1 mm 5 mps 743 mmHg 86%
    09:00 +2°C° 0.1 mm 5 mps 743 mmHg 80%
    10:00 +5°C° 0.1 mm 5 mps 743 mmHg 74%
    11:00 +6°C° 0.1 mm 5 mps 743 mmHg 68%
    12:00 +6°C° 0 mm 5 mps 743 mmHg 66%
    13:00 +6°C° 0 mm 5 mps 743 mmHg 64%
    14:00 +7°C° 0 mm 4 mps 743 mmHg 62%
    15:00 +6°C° 0 mm 4 mps 743 mmHg 67%
    16:00 +5°C° 0 mm 3 mps 743 mmHg 71%
    17:00 +5°C° 0 mm 2 mps 743 mmHg 76%
    18:00 +5°C° 0.1 mm 2 mps 742 mmHg 79%
    19:00 +5°C° 0.1 mm 2 mps 742 mmHg 81%
    20:00 +6°C° 0.1 mm 1 mps 742 mmHg 83%
    21:00 +5°C° 0.3 mm 2 mps 741 mmHg 84%
    22:00 +4°C° 0.3 mm 3 mps 740 mmHg 84%
    23:00 +3°C° 0.3 mm 4 mps 739 mmHg 84%

    27 October, Saturday

    Time Temperature Precipitation Wind Pressure Humidity
    00:00 +4°C° 0.7 mm 4 mps 739 mmHg 83%
    01:00 +3°C° 0.7 mm 5 mps 738 mmHg 82%
    02:00 +3°C° 0.7 mm 6 mps 738 mmHg 82%
    03:00 +3°C° 0.9 mm 6 mps 738 mmHg 82%
    04:00 +2°C° 0.9 mm 6 mps 738 mmHg 82%
    05:00 +2°C° 0.9 mm 6 mps 738 mmHg 82%
    06:00 +2°C° 0.2 mm 6 mps 739 mmHg 82%
    07:00 +2°C° 0.2 mm 6 mps 740 mmHg 82%
    08:00 +2°C° 0.2 mm 6 mps 740 mmHg 83%
    09:00 +2°C° 0 mm 5 mps 742 mmHg 78%
    10:00 +3°C° 0 mm 5 mps 743 mmHg 74%
    11:00 +3°C° 0 mm 5 mps 744 mmHg 70%
    12:00 +3°C° 0 mm 5 mps 745 mmHg 69%
    13:00 +5°C° 0 mm 5 mps 746 mmHg 67%
    14:00 +5°C° 0 mm 5 mps 746 mmHg 65%
    15:00 +3°C° 0 mm 5 mps 747 mmHg 68%
    16:00 +3°C° 0 mm 4 mps 748 mmHg 71%
    17:00 +3°C° 0 mm 4 mps 748 mmHg 73%
    18:00 +1°C° 0.1 mm 4 mps 749 mmHg 75%
    19:00 +2°C° 0.1 mm 3 mps 750 mmHg 78%
    20:00 +2°C° 0.1 mm 2 mps 750 mmHg 80%
    21:00 +2°C° 0.1 mm 2 mps 751 mmHg 81%
    22:00 +2°C° 0.1 mm 2 mps 752 mmHg 83%
    23:00 +2°C° 0.1 mm 2 mps 752 mmHg 84%

    28 October, Sunday

    Time Temperature Precipitation Wind Pressure Humidity
    00:00 +1°C° 0.1 mm 3 mps 753 mmHg 85%
    01:00 +1°C° 0.1 mm 3 mps 753 mmHg 86%
    02:00 0°C° 0.1 mm 3 mps 754 mmHg 87%
    03:00 +1°C° 0 mm 3 mps 754 mmHg 86%
    04:00 +1°C° 0 mm 3 mps 755 mmHg 84%
    05:00 0°C° 0 mm 4 mps 755 mmHg 83%
    06:00 0°C° 0 mm 3 mps 756 mmHg 82%
    07:00 0°C° 0 mm 3 mps 757 mmHg 81%
    08:00 0°C° 0 mm 3 mps 757 mmHg 80%
    09:00 +1°C° 0 mm 3 mps 758 mmHg 72%
    10:00 +2°C° 0 mm 3 mps 759 mmHg 65%
    11:00 +3°C° 0 mm 3 mps 759 mmHg 58%
    12:00 +3°C° 0 mm 3 mps 760 mmHg 56%
    13:00 +3°C° 0 mm 3 mps 760 mmHg 55%
    14:00 +5°C° 0 mm 2 mps 761 mmHg 54%
    15:00 +4°C° 0 mm 2 mps 761 mmHg 59%
    16:00 +3°C° 0 mm 2 mps 762 mmHg 63%
    17:00 +2°C° 0 mm 2 mps 762 mmHg 68%
    18:00 +2°C° 0 mm 1 mps 763 mmHg 70%
    19:00 +2°C° 0 mm 1 mps 763 mmHg 71%
    20:00 +1°C° 0 mm 1 mps 763 mmHg 72%
    21:00 +1°C° 0 mm 1 mps 764 mmHg 73%
    22:00 +1°C° 0 mm 1 mps 764 mmHg 74%
    23:00 +1°C° 0 mm 1 mps 764 mmHg 74%

    29 October, Monday

    Time Temperature Precipitation Wind Pressure Humidity
    00:00 -1°C° 0 mm 2 mps 764 mmHg 75%
    01:00 -1°C° 0 mm 2 mps 764 mmHg 75%
    02:00 -1°C° 0 mm 2 mps 764 mmHg 76%
    03:00 -1°C° 0 mm 2 mps 764 mmHg 76%
    04:00 -2°C° 0 mm 2 mps 764 mmHg 77%
    05:00 -2°C° 0 mm 2 mps 764 mmHg 77%
    06:00 -2°C° 0 mm 2 mps 764 mmHg 75%
    07:00 -2°C° 0 mm 2 mps 764 mmHg 74%
    08:00 -2°C° 0 mm 2 mps 764 mmHg 72%
    09:00 +1°C° 0 mm 2 mps 764 mmHg 66%
    10:00 +2°C° 0 mm 2 mps 764 mmHg 59%
    11:00 +3°C° 0 mm 2 mps 765 mmHg 52%
    12:00 +4°C° 0 mm 2 mps 764 mmHg 51%
    13:00 +5°C° 0 mm 1 mps 764 mmHg 50%
    14:00 +6°C° 0 mm 1 mps 764 mmHg 49%
    15:00 +5°C° 0 mm 1 mps 764 mmHg 54%
    16:00 +3°C° 0 mm 1 mps 764 mmHg 59%
    17:00 +2°C° 0 mm 1 mps 764 mmHg 64%
    18:00 +2°C° 0 mm 1 mps 764 mmHg 66%
    19:00 +2°C° 0 mm 1 mps 764 mmHg 68%
    20:00 -1°C° 0 mm 2 mps 764 mmHg 69%
    21:00 -1°C° 0 mm 2 mps 764 mmHg 71%
    22:00 -1°C° 0 mm 2 mps 765 mmHg 72%
    23:00 -1°C° 0 mm 2 mps 765 mmHg 74%

    30 October, Tuesday

    Time Temperature Precipitation Wind Pressure Humidity
    00:00 -1°C° 0 mm 3 mps 765 mmHg 76%
    01:00 -1°C° 0 mm 3 mps 765 mmHg 78%
    02:00 -2°C° 0 mm 4 mps 766 mmHg 79%
    03:00 -2°C° 0 mm 4 mps 766 mmHg 81%
    04:00 -2°C° 0 mm 5 mps 766 mmHg 82%
    05:00 -1°C° 0 mm 5 mps 766 mmHg 83%
    06:00 -1°C° 0.1 mm 5 mps 766 mmHg 81%
    07:00 -1°C° 0.1 mm 5 mps 766 mmHg 78%
    08:00 -1°C° 0.1 mm 5 mps 767 mmHg 75%
    09:00 0°C° 0.1 mm 5 mps 767 mmHg 72%
    10:00 0°C° 0.1 mm 5 mps 767 mmHg 68%
    11:00 +1°C° 0.1 mm 5 mps 768 mmHg 65%
    12:00 +1°C° 0 mm 6 mps 768 mmHg 62%
    13:00 +1°C° 0 mm 6 mps 768 mmHg 60%
    14:00 +1°C° 0 mm 6 mps 768 mmHg 57%
    15:00 -1°C° 0 mm 6 mps 769 mmHg 60%
    16:00 -2°C° 0 mm 6 mps 769 mmHg 63%
    17:00 -2°C° 0 mm 6 mps 769 mmHg 66%
    18:00 -2°C° 0 mm 7 mps 769 mmHg 65%
    19:00 -2°C° 0 mm 7 mps 770 mmHg 64%
    20:00 -4°C° 0 mm 8 mps 770 mmHg 63%
    21:00 -4°C° 0 mm 8 mps 770 mmHg 60%
    22:00 -4°C° 0 mm 8 mps 770 mmHg 57%
    23:00 -4°C° 0 mm 8 mps 771 mmHg 54%
    Show more